EW1714 Weather Reports


Display with metric or nautical units.
time (UTC)temp
F
wind
direction
speed
MPH
gust
MPH
rain 1hr
in
rain 24hr
in
rain mn
in
humidity
%
barometer
mb
20260504214009 72 168 1.0 13.0 0.00 0.00 0.00 32 1006.5
20260504213508 72 320 1.0 13.0 0.00 0.00 0.00 32 1006.5
20260504213028 72 212 1.0 10.0 0.00 0.00 0.00 32 1006.5
20260504212507 72 238 1.0 12.0 0.00 0.00 0.00 31 1006.5
20260504212006 73 213 2.0 12.0 0.00 0.00 0.00 31 1006.7
20260504211535 73 119 1.0 10.0 0.00 0.00 0.00 32 1006.6
20260504211007 73 214 1.0 11.0 0.00 0.00 0.00 31 1006.5
20260504210511 73 147 3.0 11.0 0.00 0.00 0.00 31 1006.7
20260504210012 73 203 1.0 9.0 0.00 0.00 0.00 31 1006.7
20260504205504 74 219 1.0 6.0 0.00 0.00 0.00 29 1006.5
20260504205005 74 266 0.0 8.0 0.00 0.00 0.00 30 1006.6
20260504204518 75 250 1.0 9.0 0.00 0.00 0.00 31 1006.6
20260504204002 75 360 1.0 12.0 0.00 0.00 0.00 30 1006.5
20260504203502 75 198 3.0 12.0 0.00 0.00 0.00 29 1006.7
20260504203003 76 252 2.0 12.0 0.00 0.00 0.00 30 1006.6
20260504202503 76 217 1.0 11.0 0.00 0.00 0.00 29 1006.6
20260504202003 76 266 3.0 11.0 0.00 0.00 0.00 29 1006.6
20260504201503 77 20 3.0 9.0 0.00 0.00 0.00 28 1006.5
20260504201004 76 62 1.0 8.0 0.00 0.00 0.00 29 1006.5
20260504200502 75 206 1.0 6.0 0.00 0.00 0.00 30 1006.5
20260504200007 75 292 0.0 7.0 0.00 0.00 0.00 33 1006.5
20260504195503 74 210 0.0 7.0 0.00 0.00 0.00 32 1006.6
20260504195003 73 245 1.0 7.0 0.00 0.00 0.00 30 1006.7
20260504194511 73 206 1.0 8.0 0.00 0.00 0.00 30 1006.7
20260504194004 74 169 2.0 18.0 0.00 0.00 0.00 30 1006.8
20260504193506 74 250 2.0 18.0 0.00 0.00 0.00 29 1006.8
20260504193021 75 262 2.0 13.0 0.00 0.00 0.00 28 1006.7
20260504192505 76 266 2.0 13.0 0.00 0.00 0.00 27 1006.8
20260504192003 77 243 1.0 8.0 0.00 0.00 0.00 31 1006.8
20260504191505 76 203 1.0 9.0 0.00 0.00 0.00 28 1006.8
20260504191003 76 237 0.0 9.0 0.00 0.00 0.00 28 1006.7
20260504190503 76 125 1.0 9.0 0.00 0.00 0.00 29 1006.9
20260504190007 75 115 1.0 11.0 0.00 0.00 0.00 30 1006.8
20260504185504 76 227 1.0 11.0 0.00 0.00 0.00 28 1006.9
20260504185004 77 198 3.0 9.0 0.00 0.00 0.00 26 1007.1
20260504184510 77 195 1.0 13.0 0.00 0.00 0.00 27 1007.0
20260504184004 77 236 2.0 13.0 0.00 0.00 0.00 27 1007.1
20260504183504 77 272 2.0 13.0 0.00 0.00 0.00 27 1007.1
20260504183015 77 205 3.0 11.0 0.00 0.00 0.00 27 1007.1
20260504182503 77 104 1.0 10.0 0.00 0.00 0.00 27 1007.2
20260504182008 77 195 3.0 12.0 0.00 0.00 0.00 27 1007.3
20260504181519 76 207 1.0 12.0 0.00 0.00 0.00 28 1007.2
20260504181009 76 183 0.0 11.0 0.00 0.00 0.00 29 1007.2
20260504180504 76 193 5.0 11.0 0.00 0.00 0.00 27 1007.2
20260504180004 75 101 2.0 15.0 0.00 0.00 0.00 28 1007.3
20260504175503 75 200 3.0 15.0 0.00 0.00 0.00 28 1007.2
20260504175004 75 188 3.0 13.0 0.00 0.00 0.00 29 1007.3
20260504174508 74 230 1.0 13.0 0.00 0.00 0.00 29 1007.3
20260504174005 74 253 2.0 12.0 0.00 0.00 0.00 31 1007.3
20260504173505 74 129 2.0 12.0 0.00 0.00 0.00 29 1007.4
20260504173013 74 238 3.0 11.0 0.00 0.00 0.00 28 1007.5
20260504172503 74 184 2.0 14.0 0.00 0.00 0.00 29 1007.6
20260504172008 74 181 4.0 14.0 0.00 0.00 0.00 30 1007.5
20260504171514 74 166 3.0 10.0 0.00 0.00 0.00 29 1007.5
20260504171007 74 191 1.0 13.0 0.00 0.00 0.00 30 1007.5
20260504170508 73 278 3.0 13.0 0.00 0.00 0.00 30 1007.8
20260504151004 70 182 0.0 7.0 0.00 0.00 0.00 36 1008.8
20260504150506 70 260 1.0 11.0 0.00 0.00 0.00 36 1009.0
20260504141006 65 176 1.0 12.0 0.00 0.00 0.00 40 1009.4
20260504140505 65 249 3.0 12.0 0.00 0.00 0.00 40 1009.4
20260504130508 57 151 3.0 7.0 0.00 0.00 0.00 49 1010.2
20260504110502 43 160 0.0 0.0 0.00 0.00 0.00 77 1010.4
20260504100503 43 159 0.0 0.0 0.00 0.00 0.00 75 1010.7
20260504082003 44 142 0.0 0.0 0.00 0.00 0.00 69 1010.5
20260504081506 44 142 0.0 0.0 0.00 0.00 0.00 69 1010.4
20260504081003 44 142 0.0 0.0 0.00 0.00 0.00 68 1010.4
20260504080504 44 142 0.0 0.0 0.00 0.00 0.00 67 1010.4
20260504050506 36 360 0.0 0.0 0.00 0.00 0.00 88 1010.6
20260504050021 36 360 0.0 0.0 0.00 0.00 0.00 88 1010.6
20260504045504 36 360 0.0 0.0 0.00 0.00 0.00 88 1010.7
20260504045004 35 360 0.0 0.0 0.00 0.00 0.00 87 1010.7
20260504044515 35 360 0.0 0.0 0.00 0.00 0.00 86 1010.8
20260504044004 35 360 0.0 0.0 0.00 0.00 0.00 85 1010.7
20260504043504 35 360 0.0 0.0 0.00 0.00 0.00 85 1010.7
20260504043016 36 360 0.0 0.0 0.00 0.00 0.00 84 1010.7
20260504042506 36 360 0.0 0.0 0.00 0.00 0.00 84 1010.7
20260504042006 36 360 0.0 0.0 0.00 0.00 0.00 83 1010.7
20260504041529 36 360 0.0 0.0 0.00 0.00 0.00 83 1010.7
20260504041006 36 360 0.0 0.0 0.00 0.00 0.00 83 1010.6
20260504040508 36 360 0.0 0.0 0.00 0.00 0.00 83 1010.6
20260504040019 36 360 0.0 0.0 0.00 0.00 0.00 83 1010.6
20260504035508 36 360 0.0 0.0 0.00 0.00 0.00 82 1010.6
20260504035008 36 360 0.0 0.0 0.00 0.00 0.00 82 1010.5
20260504034519 37 360 0.0 0.0 0.00 0.00 0.00 82 1010.4
20260504034005 37 360 0.0 0.0 0.00 0.00 0.00 82 1010.4
20260504033506 37 360 0.0 0.0 0.00 0.00 0.00 81 1010.4
20260504033020 37 360 0.0 0.0 0.00 0.00 0.00 80 1010.3
20260504032504 37 360 0.0 0.0 0.00 0.00 0.00 80 1010.3
20260504032005 37 360 0.0 0.0 0.00 0.00 0.00 80 1010.3
20260504031520 38 360 0.0 0.0 0.00 0.00 0.00 79 1010.3
20260504031006 38 360 0.0 0.0 0.00 0.00 0.00 79 1010.3
20260504030507 38 360 0.0 0.0 0.00 0.00 0.00 79 1010.4
20260504030021 38 360 0.0 0.0 0.00 0.00 0.00 78 1010.3
20260504025507 38 360 0.0 0.0 0.00 0.00 0.00 78 1010.4
20260504025008 39 360 0.0 0.0 0.00 0.00 0.00 78 1010.4
20260504024523 39 360 0.0 0.0 0.00 0.00 0.00 78 1010.4
20260504024009 39 360 0.0 0.0 0.00 0.00 0.00 77 1010.3
20260504023504 39 360 0.0 0.0 0.00 0.00 0.00 76 1010.3
20260504023010 39 360 0.0 0.0 0.00 0.00 0.00 75 1010.3
20260504022505 40 360 0.0 0.0 0.00 0.00 0.00 75 1010.3
20260504022004 40 360 0.0 0.0 0.00 0.00 0.00 75 1010.3
20260504021513 40 360 0.0 0.0 0.00 0.00 0.00 75 1010.3
20260504021004 40 360 0.0 0.0 0.00 0.00 0.00 74 1010.2
20260504020506 40 360 0.0 0.0 0.00 0.00 0.00 73 1010.1
20260504020020 41 360 0.0 0.0 0.00 0.00 0.00 72 1010.1
20260504015508 41 360 0.0 0.0 0.00 0.00 0.00 72 1010.0
20260504015010 41 360 0.0 0.0 0.00 0.00 0.00 71 1010.0
20260504014504 42 360 0.0 0.0 0.00 0.00 0.00 70 1010.0
20260504014004 42 360 0.0 0.0 0.00 0.00 0.00 70 1009.9
20260504013503 43 360 0.0 0.0 0.00 0.00 0.00 69 1009.9
20260504013005 43 360 0.0 0.0 0.00 0.00 0.00 68 1009.9
20260504012503 43 360 0.0 0.0 0.00 0.00 0.00 68 1009.8
20260504012005 43 360 0.0 0.0 0.00 0.00 0.00 66 1009.8
20260504011512 44 360 0.0 0.0 0.00 0.00 0.00 66 1009.8
20260504011003 44 360 0.0 0.0 0.00 0.00 0.00 66 1009.7
20260504010508 44 360 0.0 0.0 0.00 0.00 0.00 64 1009.7
20260504010015 44 360 0.0 0.0 0.00 0.00 0.00 63 1009.6
20260504005507 45 360 0.0 0.0 0.00 0.00 0.00 62 1009.6
20260504005005 45 360 0.0 0.0 0.00 0.00 0.00 63 1009.5
20260504004522 45 360 0.0 0.0 0.00 0.00 0.00 60 1009.4
20260504004008 46 360 0.0 0.0 0.00 0.00 0.00 59 1009.3
20260504003511 46 360 0.0 0.0 0.00 0.00 0.00 58 1009.3
20260504003029 47 360 0.0 0.0 0.00 0.00 0.00 58 1009.3
20260504002503 47 360 0.0 0.0 0.00 0.00 0.00 56 1009.2
20260504002007 48 360 0.0 0.0 0.00 0.00 0.00 55 1009.1
20260504001509 48 360 0.0 0.0 0.00 0.00 0.00 54 1009.0
20260504001004 49 360 0.0 0.0 0.00 0.00 0.00 52 1009.0
20260504000505 49 360 0.0 0.0 0.00 0.00 0.00 51 1009.0
20260504000014 50 360 0.0 0.0 0.00 0.00 0.00 50 1009.0
20260503235505 50 360 0.0 0.0 0.00 0.00 0.00 49 1008.9
20260503235005 50 360 0.0 0.0 0.00 0.00 0.00 47 1008.9
20260503234518 51 360 0.0 0.0 0.00 0.00 0.00 47 1008.8
20260503234005 51 360 0.0 0.0 0.00 0.00 0.00 48 1008.7
20260503233505 51 360 0.0 0.0 0.00 0.00 0.00 46 1008.7
20260503233033 51 360 0.0 0.0 0.00 0.00 0.00 45 1008.7
20260503232507 51 1 0.0 0.0 0.00 0.00 0.00 45 1008.6
20260503232008 52 1 0.0 8.0 0.00 0.00 0.00 45 1008.6
20260503231523 52 359 2.0 8.0 0.00 0.00 0.00 44 1008.5
20260503231011 52 238 0.0 10.0 0.00 0.00 0.00 44 1008.5
20260503230503 52 359 0.0 10.0 0.00 0.00 0.00 44 1008.4
20260503230011 52 335 3.0 8.0 0.00 0.00 0.00 43 1008.4
20260503225504 52 248 0.0 9.0 0.00 0.00 0.00 43 1008.3
20260503225004 52 332 2.0 15.0 0.00 0.00 0.00 44 1008.2
20260503224512 52 338 4.0 15.0 0.00 0.00 0.00 43 1008.2
20260503224005 53 265 1.0 10.0 0.00 0.00 0.00 42 1008.1
20260503223511 53 209 2.0 10.0 0.00 0.00 0.00 42 1008.1
20260503223018 53 289 1.0 11.0 0.00 0.00 0.00 42 1008.1
20260503222505 53 240 0.0 11.0 0.00 0.00 0.00 42 1008.0
20260503222008 53 246 1.0 9.0 0.00 0.00 0.00 42 1007.9
20260503221529 53 245 3.0 9.0 0.00 0.00 0.00 43 1007.8
20260503221010 53 359 2.0 8.0 0.00 0.00 0.00 43 1007.8
20260503220508 53 358 0.0 11.0 0.00 0.00 0.00 44 1007.8
20260503220028 53 319 1.0 11.0 0.00 0.00 0.00 42 1007.7
20260503215510 53 63 2.0 8.0 0.00 0.00 0.00 43 1007.7
20260503215003 53 281 1.0 6.0 0.00 0.00 0.00 42 1007.7
20260503214512 53 335 1.0 9.0 0.00 0.01 0.00 42 1007.6